Home > Time Zones > World Clock > Weather > Macau > Macau > Past weeks

Flag for Macau Weather past 2 weeks in Macau, Macau

Now
70 °F

Fog.


Feels Like: 70 °F
Forecast: 60 / 66 °F
Wind: 8 mph from Southeast

Location: Taipa

Current Time: Mar 3, 2015 at 1:28:51 PM

Latest Report: Mar 3, 2015 at 12:30 PM


Visibility: 2 mi

Pressure: 29.89 "Hg

Humidity: 83%

Dew point: 64 °F

Location of MacauLocation

Historic Weather in Macau — Graph

°F

Macau temperature yesterday

Maximum temperature yesterday: 66 °F (at 1:30 PM)
Minimum temperature yesterday: 63 °F (at 2:00 AM)
Average temperature yesterday: 64 °F

Past Weeks' High & Low Weather Summary

 TemperatureHumidityPressure
High72 °F (Feb 16, 1:00 PM)100% (Feb 17, 6:30 AM)30.18 "Hg (Feb 17, 6:30 AM)
Low61 °F (Feb 17, 6:30 AM)64% (Mar 1, 4:30 PM)29.86 "Hg (Feb 24, 4:30 PM)
Average66 °F90%29.99 "Hg
* Reported Feb 16 12:00 Noon — Mar 3 12:00 Noon, Macau, Weather by CustomWeather, © 2015

Note: Actual official high and low records may vary slightly from our data, if they occured in-between our weather recording intervals... More about our weather records

Advertising

Macau weather history for previous 24 hours

 ConditionsComfort  
Time TempWeatherWind HumidityBarometerVisibility
12:00 PM
Tue, Mar 3
68 °FFog.12 mph88%29.89 "Hg2 mi
11:30 AM68 °FFog.12 mph88%29.92 "Hg2 mi
11:00 AM66 °FFog.13 mph94%29.92 "Hg2 mi
10:30 AM66 °FFog.14 mph94%29.92 "Hg2 mi
10:00 AM66 °FFog.16 mph88%29.92 "Hg3 mi
9:30 AM66 °FFog.17 mph88%29.92 "Hg3 mi
9:00 AM66 °FFog.18 mph88%29.92 "Hg3 mi
8:30 AM64 °FFog.17 mph94%29.92 "Hg3 mi
8:00 AM64 °FFog.18 mph94%29.92 "Hg3 mi
7:30 AM64 °FFog.20 mph94%29.89 "Hg3 mi
7:00 AM64 °FFog.21 mph88%29.89 "Hg3 mi
6:30 AM64 °FPassing clouds.20 mph88%29.89 "Hg4 mi
6:00 AM64 °FPassing clouds.22 mph88%29.86 "Hg5 mi
5:30 AM64 °FPassing clouds.16 mph88%29.89 "Hg5 mi
5:00 AM64 °FPassing clouds.14 mph88%29.89 "Hg5 mi
4:30 AM64 °FPassing clouds.13 mph88%29.89 "Hg6 mi
4:00 AM64 °FLight rain. Passing clouds.10 mph94%29.89 "Hg6 mi
3:30 AM64 °FPassing clouds.7 mph94%29.89 "HgN/A
3:00 AM64 °FPassing clouds.9 mph94%29.89 "Hg6 mi
2:00 AM64 °FPassing clouds.10 mph94%29.92 "HgN/A
1:30 AM64 °FPassing clouds.12 mph94%29.92 "HgN/A
1:00 AM64 °FPassing clouds.13 mph94%29.92 "HgN/A
12:30 AM64 °FLight rain. Passing clouds.14 mph94%29.92 "Hg6 mi
12:00 AM64 °FPassing clouds.15 mph94%29.89 "Hg6 mi
11:30 PM
Mon, Mar 2
64 °FLight rain. Passing clouds.14 mph94%29.89 "Hg4 mi
11:00 PM64 °FLight rain. Passing clouds.13 mph94%29.89 "Hg4 mi
10:30 PM64 °FLight rain. Passing clouds.15 mph94%29.89 "Hg4 mi
10:00 PM64 °FLight rain. Passing clouds.14 mph94%29.89 "Hg4 mi
9:30 PM64 °FPassing clouds.16 mph94%29.89 "Hg4 mi
9:00 PM64 °FPassing clouds.16 mph94%29.89 "Hg5 mi
8:30 PM64 °FPassing clouds.14 mph94%29.89 "Hg5 mi
8:00 PM64 °FPassing clouds.16 mph88%29.89 "Hg4 mi
7:30 PM64 °FPassing clouds.16 mph88%29.89 "Hg4 mi
7:00 PM64 °FPassing clouds.14 mph88%29.89 "Hg4 mi
6:30 PM64 °FPassing clouds.17 mph88%29.89 "Hg4 mi
6:00 PM64 °FScattered clouds.16 mph88%29.89 "Hg4 mi
5:30 PM64 °FScattered clouds.14 mph88%29.89 "Hg5 mi
5:00 PM64 °FScattered clouds.14 mph88%29.89 "Hg6 mi
4:30 PM64 °FScattered clouds.14 mph88%29.89 "Hg6 mi
4:00 PM64 °FScattered clouds.13 mph88%29.92 "Hg6 mi
3:30 PM64 °FScattered clouds.13 mph88%29.92 "Hg6 mi
3:00 PM66 °FScattered clouds.16 mph83%29.92 "Hg6 mi
2:30 PM66 °FScattered clouds.16 mph83%29.95 "Hg6 mi
2:00 PM66 °FScattered clouds.16 mph83%29.95 "Hg6 mi
1:30 PM66 °FScattered clouds.14 mph83%29.98 "Hg6 mi
1:00 PM64 °FScattered clouds.14 mph88%30.01 "HgN/A
Weather by CustomWeather, © 2015

See weather overviewHow to use our weather pages